STARLINK-35449 (66459 NORAD) Tracking and Keplerian Element Data

This shows tracking and keplerian element data for the satellite.

Feedback or suggestion? Click here.




ElementValue
Catalog66459
NameSTARLINK-35449
Epoch Orbit670
Epoch Day354.16111453
Epoch Year2025
RAAN28.7633
Inclination43.0006
Eccentricity0.0001443
Argument of Perigee218.4652
Mean Anonmoly141.6102
Mean Motion15.40720919
Decay Rate0.00029617
L11 66459U 25262D 25354.16111453 .00029617 00000+0 71302-3 0 9998
L22 66459 43.0006 28.7633 0001443 218.4652 141.6102 15.40720919 6700



Live tracking and technical data element details for STARLINK-35449 (NORAD 66459). STARLINK-35449 can be tracked NOW for your location showing map with azimuth and elevation plus other details from your city location.







IsCatalogInMostPopularTable: catalog: 66459, numindb: 3
Update: records affected: 1



GetName: 66459 STARLINK-35449

Hit Count: updated at: Sun, 08 Feb 2026 16:41:26 GMT